Location: Four Corners
(38.2757°N, 122.4608°W)
Time: 19:23:22
(UTC+00:00)

Cosmos 1782 Rocket - Pass Details

Date: 08 December 2019
Orbit: 606 x 633 km, 82.5° (Epoch: 18 January)

Event Time Altitude Azimuth Distance (km) Brightness Sun altitude
Rises 03:09:13 0° 347° (NNW) 2,882 7.1 -26.7°
Reaches altitude 10° 03:11:29 10° 342° (NNW) 1,970 6.2 -27.2°
Maximum altitude 03:15:42 50° 267° (W) 773 4.3 -28.0°
Drops below altitude 10° 03:19:52 10° 192° (SSW) 1,948 6.3 -28.8°
Sets 03:22:06 0° 187° (S) 2,847 7.1 -29.2°
